Location: Unspecified
(53.6186°N, 1.3184°W)
Time: 08:26:38
(UTC+01:00)

ISS - Pass Details

Date: 14 September 2017
Orbit: 401 x 407 km, 51.6° (Epoch: 23 September)

Event Time Altitude Azimuth Distance (km) Brightness Sun altitude
Exits shadow 03:36:45 21° 98° (E) 996 -1.5 -24.4°
Drops below altitude 10° 03:37:59 10° 91° (E) 1,474 -0.5 -24.3°
Sets 03:40:06 0° 87° (E) 2,336 0.7 -24.1°
